Theta_e
311 312 310 309 309 308 309 310 310 310 311 311 311 311 311 311 311 310 310 311 311 311 311 312 311 311 304 296 297 312 315 314 321 318 311 303 298 294 290 292 294 290 293 295 295 294 297
312 311 309 310 310 309 308 307 308 309 309 310 310 310 310 310 310 310 310 309 310 310 310 310 310 310 301 288 305 309 307 309 319 316 310 303 300 297 292 292 292 294 293 292 294 295 297
311 311 310 310 310 309 309 307 306 306 307 309 309 309 309 309 309 310 310 310 310 310 309 310 310 306 299 295 305 307 306 307 309 316 308 306 303 298 293 291 295 293 290 290 291 294 296
310 310 310 310 309 309 309 308 308 308 308 308 307 308 308 309 309 309 309 310 310 310 310 310 310 303 291 305 306 305 306 305 309 312 311 307 304 298 293 293 292 289 287 283 288 293 293
308 308 308 309 309 309 308 308 308 308 308 307 308 307 307 307 308 308 309 310 309 308 310 309 302 297 289 306 300 305 306 304 311 313 308 309 302 296 293 288 285 284 281 282 285 292 293
307 307 307 306 307 307 307 307 307 307 307 307 307 306 306 306 307 308 308 306 304 302 303 307 304 293 294 294 303 306 310 308 310 308 302 301 298 290 287 285 281 280 281 282 284 290 290
306 306 305 305 305 306 306 306 306 306 306 306 306 305 306 307 307 308 301 293 288 287 289 288 289 288 293 295 305 305 311 307 308 305 294 294 291 288 290 287 286 285 284 283 285 290 289
306 306 305 305 304 304 304 304 304 305 305 305 305 305 307 308 308 307 298 290 291 291 284 289 289 290 293 294 289 299 309 301 301 295 293 290 289 293 293 291 287 286 284 283 286 290 288
306 306 305 304 304 303 304 304 304 304 304 305 305 307 308 308 306 299 294 294 298 296 282 285 290 290 292 295 289 293 303 302 298 295 293 288 290 294 291 288 287 282 284 283 285 288 288
306 306 305 304 304 304 302 304 304 304 304 304 305 307 308 306 296 295 293 299 298 298 271 280 286 291 293 293 289 297 300 298 299 295 293 289 294 292 289 288 288 282 287 289 288 284 280
305 305 305 304 303 303 302 303 303 304 303 304 306 308 307 305 294 292 298 301 299 292 260 281 285 296 294 289 290 294 300 297 295 295 293 289 290 290 289 289 290 286 290 289 287 283 282
305 304 304 304 303 303 302 303 303 303 303 304 306 307 305 299 295 298 301 299 291 270 261 276 288 286 286 288 290 293 296 298 302 295 294 291 294 293 291 291 291 292 290 288 285 283 277
304 304 304 303 303 302 302 302 302 303 303 304 305 306 301 300 293 300 298 285 270 264 280 277 281 285 284 284 287 289 289 290 290 286 286 290 289 291 293 289 290 290 286 278 275 274 276
304 304 303 303 303 302 302 302 302 302 303 303 304 302 299 297 297 297 287 276 265 271 272 283 283 283 281 285 286 287 286 285 293 290 287 284 281 289 292 291 288 289 287 278 271 273 277
304 304 303 302 302 302 302 302 302 302 302 303 301 292 292 293 296 291 280 270 272 277 280 280 281 279 279 284 284 285 286 286 292 292 285 283 283 291 291 291 292 286 285 286 279 276 277
303 303 303 302 302 302 302 301 301 301 302 302 289 287 289 293 293 285 276 274 276 283 283 282 277 281 277 280 278 282 283 290 289 293 291 287 282 288 290 293 291 290 291 282 281 274 274
303 303 303 302 302 301 301 301 301 301 301 301 286 282 289 291 288 280 270 275 279 284 284 281 279 279 280 278 281 279 283 287 286 288 293 289 287 284 290 288 287 286 286 285 285 281 275
303 303 303 302 301 301 301 301 301 301 300 294 282 275 290 288 275 267 269 278 283 281 283 282 281 282 279 279 280 281 280 284 289 286 289 291 288 282 286 287 291 289 288 286 282 279 278
303 303 302 302 302 301 300 300 300 300 300 287 275 278 287 285 269 274 278 278 280 280 279 280 279 282 282 279 277 280 281 286 287 286 289 292 286 281 282 287 288 288 288 290 289 284 280
303 303 302 302 303 301 300 300 300 300 299 284 275 270 277 278 280 277 276 276 276 281 280 280 280 281 279 278 281 277 279 285 285 289 293 293 287 283 280 284 289 285 288 287 288 284 282
303 303 302 302 302 301 300 300 299 299 298 284 276 278 277 269 273 276 273 269 272 273 279 280 278 278 278 274 276 277 279 280 284 288 288 291 284 285 284 285 289 289 289 287 285 288 284
303 303 302 302 301 300 300 299 299 299 296 283 274 272 275 265 272 266 270 266 273 277 277 273 274 277 278 275 274 274 278 279 279 283 283 286 284 286 281 285 285 286 288 290 290 289 288
303 303 302 302 301 300 300 299 299 298 293 281 281 283 281 271 262 266 269 275 274 278 278 280 279 278 275 279 283 283 284 284 283 281 280 281 284 284 281 282 282 279 285 287 290 290 289
303 303 302 302 301 300 300 300 299 298 293 283 282 282 278 267 271 271 276 278 277 277 276 279 280 278 281 285 285 284 281 281 281 280 283 279 281 282 280 283 277 283 286 288 288 289 290
303 302 302 302 301 300 299 299 299 298 297 285 283 282 282 274 278 274 275 270 275 276 274 278 280 282 283 283 277 270 277 278 279 280 281 283 281 280 278 278 282 284 285 284 285 286 288
302 302 302 301 301 300 299 299 299 298 297 286 284 288 284 275 269 275 277 271 275 269 268 275 280 282 283 281 276 265 267 273 279 282 283 282 282 279 280 277 274 278 279 283 286 279 281
301 301 301 301 301 300 299 298 299 298 297 287 286 291 283 279 277 277 271 276 280 270 267 268 274 275 280 268 264 269 273 279 276 279 278 278 278 275 275 276 271 275 276 281 281 277 278
301 301 301 301 301 300 299 298 299 298 297 288 285 288 285 280 278 280 283 277 279 270 266 270 270 272 270 270 267 267 271 277 277 275 274 271 266 277 278 278 277 274 275 272 272 275 276
301 301 301 300 300 300 299 297 298 298 298 291 283 286 288 284 278 282 286 288 287 280 272 267 266 269 277 271 267 267 269 276 275 272 273 266 265 265 267 269 271 272 274 275 275 274 274
Wind_Speed
22 22 19 20 22 23 25 25 26 25 24 23 21 21 20 19 16 14 12 12 13 13 12 11 12 5 4 4 10 7 20 18 11 9 11 8 7 6 6 6 5 4 5 5 4 1 3
23 23 23 22 23 22 22 23 24 23 24 24 22 22 21 19 18 17 15 14 14 13 13 13 10 7 3 9 10 9 12 12 3 10 10 7 9 6 5 6 6 9 4 2 4 6 5
24 25 25 25 24 23 23 22 22 23 24 23 23 22 21 21 20 19 17 17 16 15 13 13 10 3 6 13 3 7 11 2 3 5 8 5 6 7 6 4 3 4 6 4 1 6 5
25 25 25 26 26 26 24 24 25 23 25 24 25 23 22 22 21 21 21 21 18 16 14 12 10 2 7 5 9 7 6 6 6 7 2 6 4 5 3 2 4 8 5 4 3 6 2
26 27 27 27 27 27 26 26 26 27 26 24 25 24 23 23 22 23 22 20 16 7 7 5 3 4 7 6 4 9 7 4 4 7 5 7 5 4 2 6 4 2 6 6 2 3 5
25 25 27 27 27 28 28 27 27 27 25 26 26 25 24 23 22 22 20 12 6 4 6 4 2 1 4 4 7 9 3 3 2 10 9 5 4 4 3 5 15 8 7 3 7 7 4
25 25 25 26 27 26 27 27 26 27 27 28 28 26 24 21 20 17 11 4 7 7 9 2 3 6 8 7 5 3 4 4 3 8 7 5 9 18 21 7 5 7 7 6 2 5 6
24 27 27 27 26 27 26 24 26 26 27 28 28 26 22 20 17 11 5 6 4 3 6 4 5 6 7 4 6 2 3 9 7 13 8 5 22 12 12 7 5 7 9 4 3 3 3
27 28 29 27 28 27 28 27 27 27 28 28 28 25 22 19 9 5 4 4 4 4 1 6 2 4 5 5 4 2 5 3 8 13 15 9 3 12 8 6 6 3 9 5 7 4 4
26 27 28 29 28 29 28 28 27 28 28 28 25 25 19 15 6 4 3 3 4 0 4 6 2 1 4 8 6 9 1 3 7 14 12 0 5 15 8 11 7 3 5 6 11 7 5
27 28 29 29 29 28 27 26 28 28 29 28 25 21 14 11 2 4 6 2 1 3 7 8 4 2 4 2 10 3 8 5 7 7 8 9 16 18 18 11 8 4 7 7 4 6 6
24 26 28 29 29 30 29 29 29 29 29 28 23 16 14 5 3 4 8 2 4 8 4 8 3 9 7 3 4 6 4 6 2 7 5 5 4 11 7 7 6 9 8 9 6 4 2
27 25 27 29 29 29 30 30 29 29 29 28 22 12 7 3 7 11 5 4 7 8 6 9 8 8 10 3 2 2 2 8 6 8 8 4 4 4 10 12 3 5 8 3 3 1 6
26 27 28 29 30 30 30 30 30 30 30 29 20 6 5 3 7 6 4 7 11 5 4 6 7 14 4 6 1 4 3 2 11 3 5 7 6 10 8 17 13 15 12 8 10 6 3
27 28 28 29 29 30 31 30 30 30 30 27 11 4 4 12 7 3 6 8 3 5 6 8 15 4 3 3 2 2 3 2 6 7 6 6 3 4 4 4 12 8 13 7 8 2 5
28 28 28 29 30 31 30 30 30 31 31 23 2 3 6 16 6 6 8 3 3 4 12 5 4 5 5 6 5 4 3 3 4 10 3 6 6 3 0 3 2 15 9 3 3 7 5
27 28 29 29 30 30 31 30 30 31 32 17 4 5 5 15 5 9 5 4 5 6 10 5 7 6 6 7 6 5 5 7 8 9 5 4 5 1 6 8 11 4 12 5 5 5 6
27 28 29 30 30 30 29 30 29 30 30 9 3 5 6 8 9 2 3 8 9 7 5 4 3 6 6 9 7 2 7 3 7 8 2 2 3 6 17 1 2 6 6 5 6 8 2
26 28 29 30 30 30 30 28 28 28 25 2 3 2 6 6 6 6 6 5 3 8 7 8 5 6 12 5 6 11 8 7 14 9 6 4 2 8 3 2 3 6 7 14 8 4 11
27 28 29 29 29 30 29 28 28 28 24 5 4 5 6 6 3 6 6 6 11 8 4 6 5 7 13 3 5 5 7 6 14 8 17 4 3 3 10 15 12 12 13 8 16 11 5
25 27 29 30 30 30 29 27 27 27 22 5 5 3 1 4 6 6 4 2 8 9 5 6 5 10 11 7 10 5 8 11 8 14 10 5 3 3 1 4 16 19 17 12 13 19 14
26 27 29 29 30 30 28 27 26 25 16 6 5 4 4 1 3 4 7 4 6 6 4 7 2 15 10 5 4 12 9 4 4 9 10 8 0 4 2 4 3 13 13 22 16 16 16
25 26 27 28 29 28 27 24 23 22 12 4 2 1 2 4 4 4 2 5 7 14 5 8 10 14 8 3 8 11 10 10 9 8 5 6 3 3 4 2 4 3 15 15 19 14 12
25 25 26 28 28 27 25 23 20 19 9 3 1 1 3 3 3 1 4 7 8 8 7 10 11 6 5 19 18 12 13 14 13 12 10 4 4 2 2 3 5 3 5 7 10 6 10
24 24 26 26 27 26 23 21 19 17 13 4 2 3 2 2 3 4 8 2 7 6 4 4 6 9 16 10 4 6 1 2 5 10 14 11 4 2 2 5 0 7 2 1 7 8 8
23 24 25 26 26 26 23 20 18 17 13 4 2 3 2 1 4 3 5 2 6 6 7 4 6 5 4 3 3 4 2 5 1 1 5 6 6 4 2 4 8 3 13 17 12 2 19
23 24 25 26 26 26 24 19 16 16 10 4 1 3 2 2 3 2 1 3 3 2 2 6 13 8 4 5 5 4 5 8 6 5 3 4 3 7 4 3 4 15 22 14 8 6 21
21 23 24 25 26 26 25 20 15 14 6 4 1 3 1 2 4 2 1 1 2 4 2 7 7 6 5 8 5 4 3 4 5 5 8 5 5 1 4 5 6 23 9 10 11 13 18
20 21 23 24 25 26 25 20 15 13 11 4 2 2 1 3 4 2 4 2 3 4 4 2 7 2 3 4 3 2 3 3 5 2 8 5 3 4 2 3 1 13 4 9 11 14 17
Wind_Direction
11 5 3 3 359 358 356 0 359 359 356 354 355 352 350 346 347 347 342 332 321 320 313 321 327 9 79 297 265 14 358 349 198 161 183 161 145 140 173 182 118 179 187 195 172 119 160
15 5 9 7 360 2 359 353 354 358 357 357 357 354 353 347 345 342 338 332 319 316 312 306 311 339 275 295 252 303 351 352 105 167 179 160 171 179 157 186 170 189 169 146 155 152 133
14 11 9 9 6 2 360 359 355 350 352 359 354 354 348 346 344 340 336 328 316 307 301 296 294 314 253 247 238 310 336 287 314 235 170 202 141 164 130 125 196 147 137 30 162 161 143
4 8 5 8 5 5 5 1 355 356 356 353 349 348 346 342 341 339 331 319 308 298 287 278 270 275 260 272 275 271 270 292 255 205 197 135 133 119 171 174 60 106 65 136 280 139 109
4 3 0 1 358 1 3 3 3 359 359 356 352 348 343 338 338 335 326 319 317 315 286 223 183 162 261 287 274 268 197 233 302 148 140 148 114 192 121 123 73 5 160 167 197 217 122
11 9 4 360 356 356 355 360 359 357 357 354 348 346 339 336 338 335 329 340 25 37 11 117 350 60 287 352 326 317 177 204 184 161 112 144 146 149 117 151 191 168 123 145 162 198 78
11 11 10 6 360 358 355 353 356 354 355 354 350 343 338 333 337 342 340 22 17 355 35 5 287 265 294 322 308 9 24 181 219 192 157 180 169 201 191 127 140 127 115 134 191 188 116
13 6 13 8 7 0 354 349 352 355 356 352 347 342 336 337 340 347 2 73 106 181 311 282 265 272 273 249 272 25 231 189 199 177 126 129 209 190 151 141 128 142 154 153 70 64 89
10 9 6 12 7 4 356 351 356 352 354 352 347 344 342 335 350 25 358 90 126 124 245 295 244 292 307 320 261 242 277 216 192 170 175 184 225 154 152 149 155 139 170 163 145 109 60
10 7 2 5 7 1 360 356 356 353 353 353 351 347 350 350 47 325 7 109 124 255 62 321 358 240 313 346 269 194 104 287 177 188 177 29 197 157 142 178 139 138 165 130 130 106 172
4 8 3 4 4 1 1 358 356 354 354 353 351 357 17 35 272 5 336 125 139 61 59 301 323 307 321 252 321 132 147 264 171 185 150 189 166 165 176 177 132 183 131 127 113 104 105
10 7 3 0 4 3 0 359 355 354 354 352 351 360 11 355 351 338 325 265 47 43 308 327 330 334 321 261 236 337 171 227 296 170 105 133 145 154 148 136 133 157 87 49 54 82 271
4 8 5 2 3 5 360 360 357 353 353 351 349 355 21 1 327 315 322 36 39 81 335 315 331 322 322 292 224 244 305 191 154 159 154 86 160 125 135 122 89 141 123 63 11 310 216
3 5 6 3 2 4 0 360 356 353 351 347 340 0 339 58 316 323 45 44 61 249 281 295 295 309 307 341 3 172 203 254 203 93 113 146 168 172 181 177 182 177 165 151 178 184 174
7 3 4 5 2 2 1 359 356 353 350 345 341 339 351 346 341 36 66 47 6 317 330 303 311 315 328 306 278 332 206 210 244 193 142 146 123 180 179 141 151 190 206 156 102 30 91
6 5 5 3 2 1 2 358 357 354 350 352 22 7 350 337 341 58 62 86 291 334 327 300 306 11 314 321 4 23 31 199 324 214 295 185 122 198 119 132 40 187 152 93 48 149 201
8 8 4 3 2 2 1 360 357 356 352 353 41 47 284 341 42 46 69 341 305 298 348 327 336 294 354 340 325 332 356 20 1 324 268 189 127 171 133 207 173 136 190 182 136 143 164
6 6 5 3 2 2 4 0 359 358 356 33 39 49 313 344 54 66 38 322 313 312 337 330 306 304 13 319 315 360 23 360 5 298 157 285 156 141 196 340 175 176 177 153 194 216 109
5 6 5 4 3 2 4 4 1 0 5 13 65 318 329 32 65 28 325 306 300 333 327 345 317 356 342 346 346 3 345 309 352 348 360 327 331 142 106 335 26 186 205 201 209 94 199
2 2 5 5 4 3 4 6 3 1 5 79 66 24 343 39 26 35 2 350 345 331 298 337 296 337 341 337 6 292 331 320 338 351 327 271 137 148 197 214 193 204 208 209 208 222 208
4 1 5 5 6 5 4 6 7 3 7 80 38 51 216 3 2 13 344 10 347 353 344 324 337 2 352 315 322 11 358 331 337 3 338 11 132 179 296 336 190 214 208 187 201 217 209
5 4 7 6 7 7 6 7 10 10 8 71 100 61 359 98 342 40 349 327 330 336 299 308 315 316 316 286 266 305 321 347 318 343 2 341 353 149 306 31 41 207 220 229 222 223 232
5 4 5 7 9 9 7 10 12 19 32 51 341 334 89 324 1 53 316 335 317 323 273 259 298 320 323 316 318 294 288 278 282 319 343 312 301 157 182 18 41 328 212 212 226 228 205
3 4 5 7 9 11 8 9 16 18 54 107 298 70 54 314 38 282 330 334 325 325 281 294 312 324 277 318 290 265 255 253 253 246 233 285 312 287 152 101 208 268 294 230 213 225 218
360 1 4 6 7 10 8 6 13 20 35 71 339 59 16 8 329 333 325 283 293 280 266 268 284 322 299 295 314 343 232 306 249 226 212 207 299 343 173 184 290 311 313 124 174 254 357
358 359 360 4 3 7 7 4 4 13 30 80 346 284 48 64 275 209 319 294 348 324 336 267 317 311 314 301 7 358 302 235 10 126 184 188 258 325 320 176 196 26 320 331 297 277 9
353 358 359 1 0 3 4 2 1 1 43 99 319 333 48 314 267 124 271 313 333 5 278 309 340 339 5 4 19 7 333 324 3 338 154 157 198 234 249 311 320 345 322 305 177 304 334
350 351 357 358 358 358 0 359 357 352 24 99 231 4 31 279 285 178 275 297 341 66 68 286 6 354 342 28 33 315 332 337 343 51 340 31 309 322 212 216 239 356 11 43 332 314 323
347 349 351 355 356 355 357 356 354 350 4 107 44 355 302 240 245 318 269 276 95 168 145 301 197 248 284 17 7 346 337 321 324 343 6 26 34 285 25 325 24 335 65 8 339 323 324